Weather History for KGRR - January, 2012

Change the Weather History Date:

Tuesday, January 3, 2012

  Actual Average Record
Temperature  
Mean Temperature 21 °F 25 °F  
Max Temperature 24 °F 31 °F 59 °F (2004)
Min Temperature 18 °F 19 °F -11 °F (1902)
Degree Days  
Heating Degree Days 44 40  
Month to date heating degree days 112 120  
Since 1 July heating degree days 2207 2569  
Cooling Degree Days 0 0  
Month to date cooling degree days 0 0  
Year to date cooling degree days 0 0  
Moisture  
Dew Point 10 °F    
Average Humidity 62    
Maximum Humidity 74    
Minimum Humidity 50    
Precipitation  
Precipitation T in 0.07 in 1.50 in (1897)
Month to date precipitation 0.25 0.23  
Year to date precipitation 0.25 0.23  
Snow  
Snow T in 0.80 in 9.10 in (1999)
Month to date snowfall 4.6 2.2  
Since 1 July snowfall 9.8 31.4  
Snow Depth 3.00 in    
Sea Level Pressure  
Sea Level Pressure 30.27 in    
Wind  
Wind Speed 9 mph (West)    
Max Wind Speed 20 mph    
Max Gust Speed 24 mph    
Visibility 10 miles    
Events Snow    
T = Trace of Precipitation, MM = Missing Value Source: NWS Daily Summary

Daily Weather History Graph

Daily Weather History Graph

Search for Another Location

Airport or City:

Trip Planner

Search our weather history database for the weather conditions in past years. The results will help you decide how hot, cold, wet, or windy it might be!

Date:

Astronomy

Jan. 03, 2012 Rise Set
Actual Time 8:13 AM EST 5:19 PM EST
Civil Twilight 7:41 AM EST 5:52 PM EST
Nautical Twilight 7:05 AM EST 6:27 PM EST
Astronomical Twilight 6:31 AM EST 7:01 PM EST
Moon 1:09 PM EST 3:00 AM EST
Length of Visible Light 10h 10m
Length of Day
9h 06m
Waxing Gibbous, 72% of the Moon is Illuminated
Jan 3
Waxing Gibbous
Jan 9
Full
Jan 16
Last Quarter
Jan 23
New
Jan 30
First Quarter

Hourly Weather History & Observations

Time (EST) Temp. Windchill Dew Point Humidity Pressure Visibility Wind Dir Wind Speed Gust Speed Precip Events Conditions
12:53 AM 19.0 °F 8.2 °F 8.1 °F 62% 30.28 in 10.0 mi NW 9.2 mph - N/A   Clear
1:53 AM 18.0 °F 6.1 °F 8.1 °F 65% 30.29 in 10.0 mi NW 10.4 mph - N/A   Clear
2:53 AM 19.0 °F 5.6 °F 8.1 °F 62% 30.30 in 10.0 mi NW 13.8 mph - N/A   Overcast
3:53 AM 19.0 °F 6.1 °F 7.0 °F 59% 30.31 in 10.0 mi NW 12.7 mph 24.2 mph N/A   Overcast
4:53 AM 19.0 °F 7.5 °F 9.0 °F 65% 30.29 in 10.0 mi NW 10.4 mph - N/A   Overcast
5:53 AM 19.0 °F 8.2 °F 10.9 °F 71% 30.30 in 10.0 mi WNW 9.2 mph - N/A   Overcast
6:53 AM 19.0 °F 6.1 °F 10.0 °F 68% 30.31 in 9.0 mi WNW 12.7 mph - 0.00 in   Overcast
7:53 AM 19.0 °F 6.8 °F 10.0 °F 68% 30.33 in 6.0 mi NW 11.5 mph 20.7 mph 0.00 in Snow Light Snow
8:53 AM 17.6 °F 5.7 °F 8.6 °F 68% 30.31 in 10.0 mi NW 10.4 mph - N/A   Mostly Cloudy
9:53 AM 19.9 °F 10.1 °F 8.1 °F 60% 30.36 in 10.0 mi NW 8.1 mph - N/A   Mostly Cloudy
10:53 AM 21.0 °F 8.6 °F 7.0 °F 55% 30.37 in 10.0 mi NW 12.7 mph - N/A   Scattered Clouds
11:53 AM 21.9 °F 10.4 °F 8.1 °F 55% 30.35 in 10.0 mi NW 11.5 mph - N/A   Scattered Clouds
12:53 PM 23.0 °F 18.4 °F 8.1 °F 53% 30.32 in 10.0 mi WNW 3.5 mph - N/A   Mostly Cloudy
1:53 PM 23.0 °F - 8.1 °F 53% 30.30 in 10.0 mi Calm Calm - N/A   Mostly Cloudy
2:53 PM 24.1 °F 16.0 °F 9.0 °F 53% 30.29 in 10.0 mi West 6.9 mph - N/A   Mostly Cloudy
3:53 PM 23.0 °F 14.7 °F 10.4 °F 59% 30.25 in 10.0 mi WSW 6.9 mph - N/A   Mostly Cloudy
4:53 PM 23.0 °F 13.9 °F 12.0 °F 63% 30.28 in 10.0 mi SW 8.1 mph - N/A   Mostly Cloudy
5:53 PM 23.0 °F 15.8 °F 14.0 °F 68% 30.26 in 10.0 mi SSW 5.8 mph - N/A   Mostly Cloudy
6:53 PM 23.0 °F 14.7 °F 15.1 °F 72% 30.22 in 10.0 mi South 6.9 mph - N/A   Overcast
7:53 PM 21.9 °F 10.4 °F 14.0 °F 72% 30.18 in 10.0 mi South 11.5 mph - N/A   Mostly Cloudy
8:53 PM 21.9 °F 10.4 °F 12.9 °F 68% 30.17 in 10.0 mi South 11.5 mph - N/A   Mostly Cloudy
9:53 PM 21.0 °F 9.3 °F 9.0 °F 60% 30.14 in 10.0 mi South 11.5 mph - N/A   Scattered Clouds
10:53 PM 19.9 °F 10.1 °F 9.0 °F 62% 30.16 in 10.0 mi South 8.1 mph - N/A   Mostly Cloudy
11:53 PM 19.9 °F 9.3 °F 9.0 °F 62% 30.13 in 10.0 mi South 9.2 mph - N/A   Mostly Cloudy